Year,Month,Day,Hour,Minute,Value (Times are PST for temperature in C)
2009,07,27,00,00,22.30
2009,07,27,00,01,22.30
2009,07,27,00,02,22.30
2009,07,27,00,03,22.30
2009,07,27,00,04,22.30
2009,07,27,00,05,22.20
2009,07,27,00,06,22.20
2009,07,27,00,07,22.20
2009,07,27,00,08,22.20
2009,07,27,00,09,22.20
2009,07,27,00,10,22.20
2009,07,27,00,11,22.20
2009,07,27,00,12,22.20
2009,07,27,00,13,22.10
2009,07,27,00,14,22.10
2009,07,27,00,15,22.10
2009,07,27,00,16,22.10
2009,07,27,00,17,22.10
2009,07,27,00,18,22.00
2009,07,27,00,19,22.00
2009,07,27,00,20,22.00
2009,07,27,00,21,21.90
2009,07,27,00,22,21.90
2009,07,27,00,23,21.90
2009,07,27,00,24,21.90
2009,07,27,00,25,21.90
2009,07,27,00,26,21.80
2009,07,27,00,27,21.80
2009,07,27,00,28,21.80
2009,07,27,00,29,21.80
2009,07,27,00,30,21.80
2009,07,27,00,31,21.80
2009,07,27,00,32,21.80
2009,07,27,00,33,21.80
2009,07,27,00,34,21.70
2009,07,27,00,35,21.70
2009,07,27,00,36,21.70
2009,07,27,00,37,21.70
2009,07,27,00,38,21.70
2009,07,27,00,39,21.70
2009,07,27,00,40,21.60
2009,07,27,00,41,21.60
2009,07,27,00,42,21.60
2009,07,27,00,43,21.60
2009,07,27,00,44,21.60
2009,07,27,00,45,21.60
2009,07,27,00,46,21.60
2009,07,27,00,47,21.60
2009,07,27,00,48,21.60
2009,07,27,00,49,21.50
2009,07,27,00,50,21.50
2009,07,27,00,51,21.50
2009,07,27,00,52,21.50
2009,07,27,00,53,21.40
2009,07,27,00,54,21.40
2009,07,27,00,55,21.40
2009,07,27,00,56,21.40
2009,07,27,00,57,21.40
2009,07,27,00,58,21.40
2009,07,27,00,59,21.30
2009,07,27,01,00,21.30
2009,07,27,01,01,21.30
2009,07,27,01,02,21.30
2009,07,27,01,03,21.20
2009,07,27,01,04,21.20
2009,07,27,01,05,21.20
2009,07,27,01,06,21.20
2009,07,27,01,07,21.20
2009,07,27,01,08,21.10
2009,07,27,01,09,21.10
2009,07,27,01,10,21.10
2009,07,27,01,11,21.10
2009,07,27,01,12,21.00
2009,07,27,01,13,21.00
2009,07,27,01,14,20.90
2009,07,27,01,15,20.90
2009,07,27,01,16,20.90
2009,07,27,01,17,20.90
2009,07,27,01,18,20.90
2009,07,27,01,19,20.80
2009,07,27,01,20,20.80
2009,07,27,01,21,20.80
2009,07,27,01,22,20.80
2009,07,27,01,23,20.80
2009,07,27,01,24,20.80
2009,07,27,01,25,20.80
2009,07,27,01,26,20.70
2009,07,27,01,27,20.70
2009,07,27,01,28,20.70
2009,07,27,01,29,20.70
2009,07,27,01,30,20.70
2009,07,27,01,31,20.70
2009,07,27,01,32,20.70
2009,07,27,01,33,20.70
2009,07,27,01,34,20.60
2009,07,27,01,35,20.60
2009,07,27,01,36,20.60
2009,07,27,01,37,20.60
2009,07,27,01,38,20.60
2009,07,27,01,39,20.60
2009,07,27,01,40,20.60
2009,07,27,01,41,20.60
2009,07,27,01,42,20.60
2009,07,27,01,43,20.60
2009,07,27,01,44,20.60
2009,07,27,01,45,20.60
2009,07,27,01,46,20.60
2009,07,27,01,47,20.60
2009,07,27,01,48,20.60
2009,07,27,01,49,20.50
2009,07,27,01,50,20.60
2009,07,27,01,51,20.50
2009,07,27,01,52,20.50
2009,07,27,01,53,20.50
2009,07,27,01,54,20.50
2009,07,27,01,55,20.50
2009,07,27,01,56,20.50
2009,07,27,01,57,20.40
2009,07,27,01,58,20.40
2009,07,27,01,59,20.40
2009,07,27,02,00,20.40
2009,07,27,02,01,20.40
2009,07,27,02,02,20.40
2009,07,27,02,03,20.40
2009,07,27,02,04,20.40
2009,07,27,02,05,20.40
2009,07,27,02,06,20.40
2009,07,27,02,07,20.40
2009,07,27,02,08,20.40
2009,07,27,02,09,20.40
2009,07,27,02,10,20.40
2009,07,27,02,11,20.30
2009,07,27,02,12,20.30
2009,07,27,02,13,20.30
2009,07,27,02,14,20.30
2009,07,27,02,15,20.30
2009,07,27,02,16,20.30
2009,07,27,02,17,20.30
2009,07,27,02,18,20.30
2009,07,27,02,19,20.30
2009,07,27,02,20,20.30
2009,07,27,02,21,20.30
2009,07,27,02,22,20.30
2009,07,27,02,23,20.30
2009,07,27,02,24,20.30
2009,07,27,02,25,20.20
2009,07,27,02,26,20.20
2009,07,27,02,27,20.20
2009,07,27,02,28,20.20
2009,07,27,02,29,20.20
2009,07,27,02,30,20.20
2009,07,27,02,31,20.20
2009,07,27,02,32,20.20
2009,07,27,02,33,20.20
2009,07,27,02,34,20.20
2009,07,27,02,35,20.20
2009,07,27,02,36,20.20
2009,07,27,02,37,20.10
2009,07,27,02,38,20.10
2009,07,27,02,39,20.10
2009,07,27,02,40,20.10
2009,07,27,02,41,20.10
2009,07,27,02,42,20.10
2009,07,27,02,43,20.10
2009,07,27,02,44,20.10
2009,07,27,02,45,20.00
2009,07,27,02,46,20.00
2009,07,27,02,47,20.00
2009,07,27,02,48,20.00
2009,07,27,02,49,19.90
2009,07,27,02,50,19.90
2009,07,27,02,51,19.90
2009,07,27,02,52,19.90
2009,07,27,02,53,19.90
2009,07,27,02,54,19.90
2009,07,27,02,55,19.90
2009,07,27,02,56,19.90
2009,07,27,02,57,19.90
2009,07,27,02,58,19.90
2009,07,27,02,59,19.80
2009,07,27,03,00,19.80
2009,07,27,03,01,19.80
2009,07,27,03,02,19.80
2009,07,27,03,03,19.80
2009,07,27,03,04,19.80
2009,07,27,03,05,19.80
2009,07,27,03,06,19.80
2009,07,27,03,07,19.80
2009,07,27,03,08,19.80
2009,07,27,03,09,19.80
2009,07,27,03,10,19.80
2009,07,27,03,11,19.80
2009,07,27,03,12,19.70
2009,07,27,03,13,19.70
2009,07,27,03,14,19.70
2009,07,27,03,15,19.70
2009,07,27,03,16,19.70
2009,07,27,03,17,19.70
2009,07,27,03,18,19.70
2009,07,27,03,19,19.70
2009,07,27,03,20,19.70
2009,07,27,03,21,19.60
2009,07,27,03,22,19.70
2009,07,27,03,23,19.60
2009,07,27,03,24,19.60
2009,07,27,03,25,19.60
2009,07,27,03,26,19.60
2009,07,27,03,27,19.60
2009,07,27,03,28,19.60
2009,07,27,03,29,19.60
2009,07,27,03,31,19.50
2009,07,27,03,32,19.50
2009,07,27,03,33,19.50
2009,07,27,03,34,19.50
2009,07,27,03,35,19.40
2009,07,27,03,36,19.40
2009,07,27,03,37,19.40
2009,07,27,03,38,19.40
2009,07,27,03,39,19.40
2009,07,27,03,40,19.40
2009,07,27,03,41,19.40
2009,07,27,03,42,19.40
2009,07,27,03,43,19.40
2009,07,27,03,44,19.40
2009,07,27,03,45,19.40
2009,07,27,03,46,19.30
2009,07,27,03,47,19.30
2009,07,27,03,48,19.30
2009,07,27,03,49,19.30
2009,07,27,03,50,19.30
2009,07,27,03,51,19.30
2009,07,27,03,52,19.30
2009,07,27,03,53,19.30
2009,07,27,03,54,19.30
2009,07,27,03,55,19.30
2009,07,27,03,56,19.30
2009,07,27,03,57,19.30
2009,07,27,03,58,19.30
2009,07,27,03,59,19.30
2009,07,27,04,00,19.20
2009,07,27,04,01,19.20
2009,07,27,04,02,19.20
2009,07,27,04,03,19.20
2009,07,27,04,04,19.20
2009,07,27,04,05,19.20
2009,07,27,04,06,19.20
2009,07,27,04,07,19.20
2009,07,27,04,08,19.20
2009,07,27,04,09,19.20
2009,07,27,04,10,19.20
2009,07,27,04,11,19.20
2009,07,27,04,12,19.20
2009,07,27,04,13,19.20
2009,07,27,04,14,19.20
2009,07,27,04,15,19.20
2009,07,27,04,16,19.20
2009,07,27,04,17,19.10
2009,07,27,04,18,19.10
2009,07,27,04,19,19.10
2009,07,27,04,20,19.10
2009,07,27,04,21,19.10
2009,07,27,04,22,19.10
2009,07,27,04,23,19.10
2009,07,27,04,24,19.10
2009,07,27,04,25,19.10
2009,07,27,04,26,19.00
2009,07,27,04,27,19.00
2009,07,27,04,28,19.00
2009,07,27,04,29,18.90
2009,07,27,04,30,18.90
2009,07,27,04,31,18.90
2009,07,27,04,32,18.90
2009,07,27,04,33,18.90
2009,07,27,04,34,18.90
2009,07,27,04,35,18.90
2009,07,27,04,36,18.90
2009,07,27,04,37,18.90
2009,07,27,04,38,18.80
2009,07,27,04,39,18.90
2009,07,27,04,40,18.80
2009,07,27,04,41,18.80
2009,07,27,04,42,18.80
2009,07,27,04,43,18.80
2009,07,27,04,44,18.80
2009,07,27,04,45,18.80
2009,07,27,04,46,18.80
2009,07,27,04,47,18.80
2009,07,27,04,48,18.80
2009,07,27,04,49,18.80
2009,07,27,04,50,18.80
2009,07,27,04,51,18.80
2009,07,27,04,52,18.80
2009,07,27,04,53,18.80
2009,07,27,04,54,18.80
2009,07,27,04,55,18.80
2009,07,27,04,56,18.70
2009,07,27,04,57,18.70
2009,07,27,04,58,18.70
2009,07,27,04,59,18.70
2009,07,27,05,00,18.70
2009,07,27,05,01,18.70
2009,07,27,05,02,18.70
2009,07,27,05,03,18.70
2009,07,27,05,04,18.70
2009,07,27,05,05,18.70
2009,07,27,05,06,18.70
2009,07,27,05,07,18.70
2009,07,27,05,08,18.60
2009,07,27,05,09,18.60
2009,07,27,05,10,18.60
2009,07,27,05,11,18.60
2009,07,27,05,12,18.60
2009,07,27,05,13,18.60
2009,07,27,05,14,18.60
2009,07,27,05,15,18.60
2009,07,27,05,16,18.60
2009,07,27,05,17,18.50
2009,07,27,05,18,18.50
2009,07,27,05,19,18.50
2009,07,27,05,20,18.50
2009,07,27,05,21,18.50
2009,07,27,05,22,18.50
2009,07,27,05,23,18.40
2009,07,27,05,24,18.40
2009,07,27,05,25,18.40
2009,07,27,05,26,18.40
2009,07,27,05,27,18.40
2009,07,27,05,28,18.40
2009,07,27,05,29,18.40
2009,07,27,05,30,18.40
2009,07,27,05,31,18.30
2009,07,27,05,32,18.30
2009,07,27,05,33,18.30
2009,07,27,05,34,18.30
2009,07,27,05,35,18.30
2009,07,27,05,36,18.30
2009,07,27,05,37,18.30
2009,07,27,05,38,18.30
2009,07,27,05,39,18.30
2009,07,27,05,40,18.30
2009,07,27,05,41,18.30
2009,07,27,05,42,18.30
2009,07,27,05,43,18.30
2009,07,27,05,44,18.30
2009,07,27,05,45,18.30
2009,07,27,05,46,18.30
2009,07,27,05,47,18.30
2009,07,27,05,48,18.30
2009,07,27,05,49,18.30
2009,07,27,05,50,18.30
2009,07,27,05,51,18.30
2009,07,27,05,52,18.30
2009,07,27,05,53,18.30
2009,07,27,05,54,18.20
2009,07,27,05,55,18.20
2009,07,27,05,56,18.20
2009,07,27,05,57,18.20
2009,07,27,05,58,18.20
2009,07,27,05,59,18.20
2009,07,27,06,00,18.20
2009,07,27,06,01,18.20
2009,07,27,06,02,18.20
2009,07,27,06,03,18.20
2009,07,27,06,04,18.20
2009,07,27,06,05,18.20
2009,07,27,06,06,18.20
2009,07,27,06,07,18.20
2009,07,27,06,08,18.20
2009,07,27,06,09,18.20
2009,07,27,06,10,18.20
2009,07,27,06,11,18.20
2009,07,27,06,12,18.20
2009,07,27,06,13,18.20
2009,07,27,06,14,18.20
2009,07,27,06,15,18.20
2009,07,27,06,16,18.20
2009,07,27,06,17,18.20
2009,07,27,06,18,18.20
2009,07,27,06,19,18.20
2009,07,27,06,20,18.20
2009,07,27,06,21,18.10
2009,07,27,06,22,18.10
2009,07,27,06,23,18.10
2009,07,27,06,24,18.10
2009,07,27,06,25,18.10
2009,07,27,06,26,18.10
2009,07,27,06,27,18.10
2009,07,27,06,28,18.10
2009,07,27,06,29,18.10
2009,07,27,06,30,18.10
2009,07,27,06,31,18.10
2009,07,27,06,32,18.20
2009,07,27,06,33,18.20
2009,07,27,06,34,18.20
2009,07,27,06,35,18.20
2009,07,27,06,36,18.20
2009,07,27,06,37,18.20
2009,07,27,06,38,18.20
2009,07,27,06,39,18.20
2009,07,27,06,40,18.20
2009,07,27,06,41,18.20
2009,07,27,06,42,18.20
2009,07,27,06,43,18.20
2009,07,27,06,44,18.20
2009,07,27,06,45,18.30
2009,07,27,06,46,18.30
2009,07,27,06,47,18.30
2009,07,27,06,48,18.30
2009,07,27,06,49,18.30
2009,07,27,06,50,18.30
2009,07,27,06,51,18.30
2009,07,27,06,52,18.40
2009,07,27,06,53,18.40
2009,07,27,06,54,18.40
2009,07,27,06,55,18.50
2009,07,27,06,56,18.60
2009,07,27,06,57,18.60
2009,07,27,06,58,18.70
2009,07,27,06,59,18.70
2009,07,27,07,00,18.70
2009,07,27,07,01,18.80
2009,07,27,07,02,18.80
2009,07,27,07,03,18.80
2009,07,27,07,04,18.90
2009,07,27,07,05,18.90
2009,07,27,07,06,18.90
2009,07,27,07,07,19.00
2009,07,27,07,08,19.00
2009,07,27,07,09,19.10
2009,07,27,07,10,19.10
2009,07,27,07,11,19.20
2009,07,27,07,12,19.20
2009,07,27,07,13,19.20
2009,07,27,07,14,19.20
2009,07,27,07,15,19.30
2009,07,27,07,16,19.30
2009,07,27,07,17,19.30
2009,07,27,07,18,19.40
2009,07,27,07,19,19.40
2009,07,27,07,20,19.40
2009,07,27,07,21,19.50
2009,07,27,07,22,19.60
2009,07,27,07,23,19.60
2009,07,27,07,24,19.60
2009,07,27,07,25,19.60
2009,07,27,07,26,19.70
2009,07,27,07,27,19.70
2009,07,27,07,28,19.70
2009,07,27,07,29,19.70
2009,07,27,07,30,19.70
2009,07,27,07,31,19.80
2009,07,27,07,32,19.80
2009,07,27,07,33,19.80
2009,07,27,07,34,19.80
2009,07,27,07,35,19.90
2009,07,27,07,36,19.90
2009,07,27,07,37,19.90
2009,07,27,07,38,19.90
2009,07,27,07,39,19.90
2009,07,27,07,40,19.90
2009,07,27,07,41,20.00
2009,07,27,07,42,20.10
2009,07,27,07,43,20.10
2009,07,27,07,44,20.10
2009,07,27,07,45,20.10
2009,07,27,07,46,20.20
2009,07,27,07,47,20.20
2009,07,27,07,48,20.20
2009,07,27,07,49,20.20
2009,07,27,07,50,20.30
2009,07,27,07,51,20.30
2009,07,27,07,52,20.30
2009,07,27,07,53,20.40
2009,07,27,07,54,20.40
2009,07,27,07,55,20.50
2009,07,27,07,56,20.60
2009,07,27,07,57,20.70
2009,07,27,07,58,20.70
2009,07,27,07,59,20.80
2009,07,27,08,00,20.80
2009,07,27,08,01,20.90
2009,07,27,08,02,21.00
2009,07,27,08,03,21.10
2009,07,27,08,04,21.10
2009,07,27,08,05,21.20
2009,07,27,08,06,21.30
2009,07,27,08,07,21.30
2009,07,27,08,08,21.40
2009,07,27,08,09,21.40
2009,07,27,08,10,21.60
2009,07,27,08,11,21.60
2009,07,27,08,12,21.60
2009,07,27,08,13,21.70
2009,07,27,08,14,21.70
2009,07,27,08,15,21.70
2009,07,27,08,16,21.80
2009,07,27,08,17,21.80
2009,07,27,08,18,21.80
2009,07,27,08,19,21.90
2009,07,27,08,20,21.90
2009,07,27,08,21,21.90
2009,07,27,08,22,22.00
2009,07,27,08,23,22.00
2009,07,27,08,24,22.10
2009,07,27,08,25,22.10
2009,07,27,08,26,22.10
2009,07,27,08,27,22.10
2009,07,27,08,28,22.20
2009,07,27,08,30,22.30
2009,07,27,08,31,22.30
2009,07,27,08,32,22.40
2009,07,27,08,33,22.50
2009,07,27,08,34,22.60
2009,07,27,08,35,22.70
2009,07,27,08,36,22.70
2009,07,27,08,37,22.70
2009,07,27,08,38,22.70
2009,07,27,08,39,22.70
2009,07,27,08,40,22.80
2009,07,27,08,41,22.80
2009,07,27,08,42,22.80
2009,07,27,08,43,22.90
2009,07,27,08,44,22.90
2009,07,27,08,45,22.90
2009,07,27,08,46,23.00
2009,07,27,08,47,23.00
2009,07,27,08,48,23.00
2009,07,27,08,49,23.10
2009,07,27,08,50,23.10
2009,07,27,08,51,23.10
2009,07,27,08,52,23.20
2009,07,27,08,53,23.20
2009,07,27,08,54,23.20
2009,07,27,08,55,23.30
2009,07,27,08,56,23.30
2009,07,27,08,57,23.30
2009,07,27,08,58,23.40
2009,07,27,08,59,23.40
2009,07,27,09,00,23.40
2009,07,27,09,01,23.50
2009,07,27,09,02,23.60
2009,07,27,09,03,23.60
2009,07,27,09,04,23.60
2009,07,27,09,05,23.70
2009,07,27,09,06,23.80
2009,07,27,09,07,23.80
2009,07,27,09,08,23.90
2009,07,27,09,09,24.10
2009,07,27,09,10,24.10
2009,07,27,09,11,24.20
2009,07,27,09,12,24.20
2009,07,27,09,13,24.30
2009,07,27,09,14,24.40
2009,07,27,09,15,24.50
2009,07,27,09,16,24.60
2009,07,27,09,17,24.60
2009,07,27,09,18,24.60
2009,07,27,09,19,24.60
2009,07,27,09,20,24.60
2009,07,27,09,21,24.60
2009,07,27,09,22,24.70
2009,07,27,09,23,24.70
2009,07,27,09,24,24.80
2009,07,27,09,25,24.80
2009,07,27,09,26,24.90
2009,07,27,09,27,24.90
2009,07,27,09,28,25.00
2009,07,27,09,29,25.10
2009,07,27,09,30,25.20
2009,07,27,09,31,25.30
2009,07,27,09,32,25.40
2009,07,27,09,33,25.50
2009,07,27,09,34,25.60
2009,07,27,09,35,25.70
2009,07,27,09,36,25.80
2009,07,27,09,37,25.80
2009,07,27,09,38,25.80
2009,07,27,09,39,25.80
2009,07,27,09,40,25.80
2009,07,27,09,41,25.80
2009,07,27,09,42,25.80
2009,07,27,09,43,25.70
2009,07,27,09,44,25.70
2009,07,27,09,45,25.70
2009,07,27,09,46,25.70
2009,07,27,09,47,25.60
2009,07,27,09,48,25.60
2009,07,27,09,49,25.60
2009,07,27,09,50,25.70
2009,07,27,09,51,25.70
2009,07,27,09,52,25.80
2009,07,27,09,53,25.90
2009,07,27,09,54,25.90
2009,07,27,09,55,25.90
2009,07,27,09,56,25.90
2009,07,27,09,57,25.90
2009,07,27,09,58,26.00
2009,07,27,09,59,26.00
2009,07,27,10,00,26.00
2009,07,27,10,01,26.10
2009,07,27,10,02,26.10
2009,07,27,10,03,26.10
2009,07,27,10,04,26.20
2009,07,27,10,05,26.20
2009,07,27,10,06,26.20
2009,07,27,10,07,26.30
2009,07,27,10,08,26.30
2009,07,27,10,09,26.40
2009,07,27,10,10,26.40
2009,07,27,10,11,26.50
2009,07,27,10,12,26.60
2009,07,27,10,13,26.60
2009,07,27,10,14,26.60
2009,07,27,10,15,26.60
2009,07,27,10,16,26.60
2009,07,27,10,17,26.60
2009,07,27,10,18,26.50
2009,07,27,10,19,26.50
2009,07,27,10,20,26.40
2009,07,27,10,21,26.40
2009,07,27,10,22,26.40
2009,07,27,10,23,26.40
2009,07,27,10,24,26.40
2009,07,27,10,25,26.40
2009,07,27,10,26,26.40
2009,07,27,10,27,26.40
2009,07,27,10,28,26.40
2009,07,27,10,29,26.50
2009,07,27,10,30,26.50
2009,07,27,10,31,26.60
2009,07,27,10,32,26.60
2009,07,27,10,33,26.70
2009,07,27,10,34,26.80
2009,07,27,10,35,26.80
2009,07,27,10,36,26.90
2009,07,27,10,37,27.00
2009,07,27,10,38,27.10
2009,07,27,10,39,27.10
2009,07,27,10,40,27.20
2009,07,27,10,41,27.20
2009,07,27,10,42,27.20
2009,07,27,10,43,27.30
2009,07,27,10,44,27.30
2009,07,27,10,45,27.30
2009,07,27,10,46,27.30
2009,07,27,10,47,27.30
2009,07,27,10,48,27.30
2009,07,27,10,49,27.40
2009,07,27,10,50,27.40
2009,07,27,10,51,27.40
2009,07,27,10,52,27.40
2009,07,27,10,53,27.40
2009,07,27,10,54,27.50
2009,07,27,10,55,27.60
2009,07,27,10,56,27.60
2009,07,27,10,57,27.60
2009,07,27,10,58,27.70
2009,07,27,10,59,27.70
2009,07,27,11,00,27.70
2009,07,27,11,01,27.70
2009,07,27,11,02,27.80
2009,07,27,11,03,27.80
2009,07,27,11,04,27.80
2009,07,27,11,05,27.80
2009,07,27,11,06,27.90
2009,07,27,11,07,27.90
2009,07,27,11,08,28.00
2009,07,27,11,09,28.10
2009,07,27,11,10,28.10
2009,07,27,11,11,28.20
2009,07,27,11,12,28.20
2009,07,27,11,13,28.30
2009,07,27,11,14,28.30
2009,07,27,11,15,28.30
2009,07,27,11,16,28.40
2009,07,27,11,17,28.40
2009,07,27,11,18,28.50
2009,07,27,11,19,28.60
2009,07,27,11,20,28.70
2009,07,27,11,21,28.70
2009,07,27,11,22,28.80
2009,07,27,11,23,28.80
2009,07,27,11,24,28.80
2009,07,27,11,25,28.90
2009,07,27,11,26,29.00
2009,07,27,11,27,29.00
2009,07,27,11,28,29.10
2009,07,27,11,29,29.20
2009,07,27,11,30,29.20
2009,07,27,11,31,29.30
2009,07,27,11,32,29.40
2009,07,27,11,33,29.40
2009,07,27,11,34,29.60
2009,07,27,11,35,29.70
2009,07,27,11,36,29.70
2009,07,27,11,37,29.70
2009,07,27,11,38,29.80
2009,07,27,11,39,29.80
2009,07,27,11,40,29.80
2009,07,27,11,41,29.90
2009,07,27,11,42,29.90
2009,07,27,11,43,30.00
2009,07,27,11,44,30.10
2009,07,27,11,45,30.10
2009,07,27,11,46,30.20
2009,07,27,11,47,30.20
2009,07,27,11,48,30.30
2009,07,27,11,49,30.40
2009,07,27,11,50,30.60
2009,07,27,11,51,30.70
2009,07,27,11,52,30.80
2009,07,27,11,53,30.80
2009,07,27,11,54,30.90
2009,07,27,11,55,31.00
2009,07,27,11,56,31.10
2009,07,27,11,57,31.10
2009,07,27,11,58,31.20
2009,07,27,11,59,31.20
2009,07,27,12,00,31.20
2009,07,27,12,01,31.20
2009,07,27,12,02,31.20
2009,07,27,12,03,31.20
2009,07,27,12,04,31.20
2009,07,27,12,05,31.20
2009,07,27,12,06,31.20
2009,07,27,12,07,31.30
2009,07,27,12,08,31.30
2009,07,27,12,09,31.40
2009,07,27,12,10,31.40
2009,07,27,12,11,31.40
2009,07,27,12,12,31.50
2009,07,27,12,13,31.60
2009,07,27,12,14,31.60
2009,07,27,12,15,31.60
2009,07,27,12,16,31.60
2009,07,27,12,17,31.60
2009,07,27,12,18,31.60
2009,07,27,12,19,31.60
2009,07,27,12,20,31.70
2009,07,27,12,21,31.70
2009,07,27,12,22,31.70
2009,07,27,12,23,31.70
2009,07,27,12,24,31.80
2009,07,27,12,25,31.80
2009,07,27,12,26,31.80
2009,07,27,12,27,31.80
2009,07,27,12,28,31.80
2009,07,27,12,29,31.80
2009,07,27,12,30,31.80
2009,07,27,12,31,31.80
2009,07,27,12,32,31.80
2009,07,27,12,33,31.80
2009,07,27,12,34,31.80
2009,07,27,12,35,31.80
2009,07,27,12,36,31.80
2009,07,27,12,37,31.80
2009,07,27,12,38,31.90
2009,07,27,12,39,31.90
2009,07,27,12,40,31.90
2009,07,27,12,41,31.90
2009,07,27,12,42,32.00
2009,07,27,12,43,32.10
2009,07,27,12,44,32.10
2009,07,27,12,45,32.20
2009,07,27,12,46,32.20
2009,07,27,12,47,32.30
2009,07,27,12,48,32.30
2009,07,27,12,49,32.30
2009,07,27,12,50,32.40
2009,07,27,12,51,32.40
2009,07,27,12,52,32.40
2009,07,27,12,53,32.40
2009,07,27,12,54,32.50
2009,07,27,12,55,32.60
2009,07,27,12,56,32.60
2009,07,27,12,57,32.60
2009,07,27,12,58,32.60
2009,07,27,12,59,32.60
2009,07,27,13,00,32.50
2009,07,27,13,01,32.50
2009,07,27,13,02,32.50
2009,07,27,13,03,32.60
2009,07,27,13,04,32.60
2009,07,27,13,05,32.60
2009,07,27,13,06,32.70
2009,07,27,13,07,32.80
2009,07,27,13,08,32.90
2009,07,27,13,09,33.10
2009,07,27,13,10,33.10
2009,07,27,13,11,33.20
2009,07,27,13,12,33.20
2009,07,27,13,13,33.20
2009,07,27,13,14,33.30
2009,07,27,13,15,33.40
2009,07,27,13,16,33.70
2009,07,27,13,17,33.80
2009,07,27,13,18,33.90
2009,07,27,13,19,34.00
2009,07,27,13,20,34.10
2009,07,27,13,21,34.10
2009,07,27,13,22,34.00
2009,07,27,13,23,34.00
2009,07,27,13,24,34.10
2009,07,27,13,25,34.10
2009,07,27,13,26,34.20
2009,07,27,13,27,34.30
2009,07,27,13,28,34.30
2009,07,27,13,29,34.30
2009,07,27,13,30,34.40
2009,07,27,13,31,34.40
2009,07,27,13,32,34.50
2009,07,27,13,33,34.60
2009,07,27,13,34,34.60
2009,07,27,13,35,34.60
2009,07,27,13,36,34.60
2009,07,27,13,37,34.60
2009,07,27,13,38,34.60
2009,07,27,13,39,34.60
2009,07,27,13,40,34.60
2009,07,27,13,41,34.60
2009,07,27,13,42,34.50
2009,07,27,13,43,34.40
2009,07,27,13,44,34.40
2009,07,27,13,45,34.40
2009,07,27,13,46,34.40
2009,07,27,13,47,34.40
2009,07,27,13,48,34.40
2009,07,27,13,49,34.40
2009,07,27,13,50,34.30
2009,07,27,13,51,34.30
2009,07,27,13,52,34.40
2009,07,27,13,53,34.40
2009,07,27,13,54,34.50
2009,07,27,13,55,34.60
2009,07,27,13,56,34.70
2009,07,27,13,57,34.70
2009,07,27,13,58,34.70
2009,07,27,13,59,34.70
2009,07,27,14,00,34.70
2009,07,27,14,01,34.70
2009,07,27,14,02,34.60
2009,07,27,14,03,34.60
2009,07,27,14,04,34.40
2009,07,27,14,05,34.40
2009,07,27,14,06,34.30
2009,07,27,14,07,34.40
2009,07,27,14,08,34.40
2009,07,27,14,09,34.40
2009,07,27,14,10,34.40
2009,07,27,14,11,34.60
2009,07,27,14,12,34.60
2009,07,27,14,13,34.60
2009,07,27,14,14,34.60
2009,07,27,14,15,34.70
2009,07,27,14,16,34.70
2009,07,27,14,17,34.80
2009,07,27,14,18,34.90
2009,07,27,14,19,35.00
2009,07,27,14,20,35.20
2009,07,27,14,21,35.30
2009,07,27,14,22,35.40
2009,07,27,14,23,35.60
2009,07,27,14,24,35.60
2009,07,27,14,25,35.70
2009,07,27,14,26,35.80
2009,07,27,14,27,35.80
2009,07,27,14,28,35.90
2009,07,27,14,29,35.90
2009,07,27,14,30,35.90
2009,07,27,14,31,36.00
2009,07,27,14,32,36.00
2009,07,27,14,33,36.10
2009,07,27,14,34,36.10
2009,07,27,14,35,36.10
2009,07,27,14,36,36.10
2009,07,27,14,37,36.10
2009,07,27,14,38,36.10
2009,07,27,14,39,36.20
2009,07,27,14,40,36.20
2009,07,27,14,41,36.20
2009,07,27,14,42,36.20
2009,07,27,14,43,36.30
2009,07,27,14,44,36.30
2009,07,27,14,45,36.40
2009,07,27,14,46,36.50
2009,07,27,14,47,36.50
2009,07,27,14,48,36.50
2009,07,27,14,49,36.50
2009,07,27,14,50,36.50
2009,07,27,14,51,36.50
2009,07,27,14,52,36.60
2009,07,27,14,53,36.60
2009,07,27,14,54,36.60
2009,07,27,14,55,36.70
2009,07,27,14,56,36.70
2009,07,27,14,57,36.70
2009,07,27,14,59,36.70
2009,07,27,15,00,36.70
2009,07,27,15,01,36.80
2009,07,27,15,02,36.80
2009,07,27,15,03,36.80
2009,07,27,15,04,36.80
2009,07,27,15,05,36.80
2009,07,27,15,06,36.80
2009,07,27,15,07,36.80
2009,07,27,15,08,36.80
2009,07,27,15,09,36.80
2009,07,27,15,10,36.80
2009,07,27,15,11,36.80
2009,07,27,15,12,36.80
2009,07,27,15,13,36.80
2009,07,27,15,14,36.80
2009,07,27,15,15,36.80
2009,07,27,15,16,36.90
2009,07,27,15,17,36.90
2009,07,27,15,18,36.90
2009,07,27,15,19,36.90
2009,07,27,15,20,36.90
2009,07,27,15,21,36.90
2009,07,27,15,22,36.80
2009,07,27,15,23,36.80
2009,07,27,15,24,36.80
2009,07,27,15,25,36.70
2009,07,27,15,26,36.70
2009,07,27,15,27,36.60
2009,07,27,15,28,36.60
2009,07,27,15,29,36.60
2009,07,27,15,30,36.60
2009,07,27,15,31,36.60
2009,07,27,15,32,36.60
2009,07,27,15,33,36.60
2009,07,27,15,34,36.60
2009,07,27,15,35,36.60
2009,07,27,15,36,36.60
2009,07,27,15,37,36.70
2009,07,27,15,38,36.70
2009,07,27,15,39,36.70
2009,07,27,15,40,36.70
2009,07,27,15,41,36.80
2009,07,27,15,42,36.80
2009,07,27,15,43,36.80
2009,07,27,15,44,36.80
2009,07,27,15,45,36.80
2009,07,27,15,46,36.80
2009,07,27,15,47,36.80
2009,07,27,15,48,36.80
2009,07,27,15,49,36.90
2009,07,27,15,50,36.80
2009,07,27,15,51,36.90
2009,07,27,15,52,36.80
2009,07,27,15,53,36.80
2009,07,27,15,54,36.80
2009,07,27,15,55,36.80
2009,07,27,15,56,36.80
2009,07,27,15,57,36.80
2009,07,27,15,58,36.90
2009,07,27,15,59,36.90
2009,07,27,16,00,36.90
2009,07,27,16,01,37.00
2009,07,27,16,02,37.00
2009,07,27,16,03,37.00
2009,07,27,16,04,36.90
2009,07,27,16,05,36.90
2009,07,27,16,06,37.00
2009,07,27,16,07,37.00
2009,07,27,16,08,37.00
2009,07,27,16,09,37.00
2009,07,27,16,10,36.90
2009,07,27,16,11,36.90
2009,07,27,16,12,36.80
2009,07,27,16,13,36.80
2009,07,27,16,14,36.80
2009,07,27,16,15,36.80
2009,07,27,16,16,36.90
2009,07,27,16,17,36.90
2009,07,27,16,18,36.90
2009,07,27,16,19,36.90
2009,07,27,16,20,37.00
2009,07,27,16,21,37.00
2009,07,27,16,22,37.10
2009,07,27,16,23,37.10
2009,07,27,16,24,37.10
2009,07,27,16,25,37.10
2009,07,27,16,26,37.10
2009,07,27,16,27,36.90
2009,07,27,16,28,36.90
2009,07,27,16,29,36.80
2009,07,27,16,30,36.80
2009,07,27,16,31,36.70
2009,07,27,16,32,36.70
2009,07,27,16,33,36.70
2009,07,27,16,34,36.70
2009,07,27,16,35,36.70
2009,07,27,16,36,36.70
2009,07,27,16,37,36.80
2009,07,27,16,38,36.80
2009,07,27,16,39,36.80
2009,07,27,16,40,36.80
2009,07,27,16,41,36.80
2009,07,27,16,42,36.80
2009,07,27,16,43,36.80
2009,07,27,16,44,36.80
2009,07,27,16,45,36.90
2009,07,27,16,46,36.90
2009,07,27,16,47,36.90
2009,07,27,16,48,37.00
2009,07,27,16,49,37.00
2009,07,27,16,50,37.00
2009,07,27,16,51,37.10
2009,07,27,16,52,37.10
2009,07,27,16,53,37.20
2009,07,27,16,54,37.20
2009,07,27,16,55,37.20
2009,07,27,16,56,37.20
2009,07,27,16,57,37.20
2009,07,27,16,58,37.10
2009,07,27,16,59,37.10
2009,07,27,17,00,37.10
2009,07,27,17,01,37.10
2009,07,27,17,02,37.10
2009,07,27,17,03,37.10
2009,07,27,17,04,37.10
2009,07,27,17,05,37.10
2009,07,27,17,06,37.10
2009,07,27,17,07,37.10
2009,07,27,17,08,37.20
2009,07,27,17,09,37.20
2009,07,27,17,10,37.30
2009,07,27,17,11,37.30
2009,07,27,17,12,37.30
2009,07,27,17,13,37.30
2009,07,27,17,14,37.30
2009,07,27,17,15,37.30
2009,07,27,17,16,37.20
2009,07,27,17,17,37.20
2009,07,27,17,18,37.10
2009,07,27,17,19,37.10
2009,07,27,17,20,37.00
2009,07,27,17,21,36.90
2009,07,27,17,22,36.90